Flag for Japan Weather past 2 weeks in Yokohama, Japan

Now
77 °F

Partly sunny.


Feels Like: 79 °F
Forecast: 68 / 71 °F
Wind: 15 mph from South

Location: Tokyo International Airport

Current Time: Jun 2, 2015 at 10:46:47 AM

Latest Report: Jun 2, 2015 at 10:00 AM


Visibility: N/A

Pressure: 29.89 "Hg

Humidity: 61%

Dew point: 63 °F

Location of YokohamaLocation

Historic Weather in Yokohama — Graph

°F

Yokohama temperature yesterday

Maximum temperature yesterday: 79 °F (at 12:30 PM)
Minimum temperature yesterday: 70 °F (at 3:00 AM)
Average temperature yesterday: 74 °F

Past Weeks' High & Low Weather Summary

 TemperatureHumidityPressure
High84 °F (May 31, 2:00 PM)94% (May 18, 10:00 PM)29.98 "Hg (May 18, 10:00 PM)
Low59 °F (May 21, 5:00 AM)28% (May 21, 2:00 PM)29.45 "Hg (May 20, 4:00 PM)
Average71 °F71%29.76 "Hg
* Reported May 18 9:00 AM — Jun 2 9:30 AM, Yokohama, Weather by CustomWeather, © 2015

Note: Actual official high and low records may vary slightly from our data, if they occured in-between our weather recording intervals... More about our weather records

Advertising

Yokohama weather history for previous 24 hours

 ConditionsComfort  
Time TempWeatherWind HumidityBarometerVisibility
9:30 AM
Tue, Jun 2
77 °FPartly sunny.15 mph65%29.89 "HgN/A
9:00 AM75 °FPartly sunny.16 mph69%29.89 "HgN/A
8:30 AM73 °FSunny.14 mph74%29.92 "Hg10 mi
8:00 AM73 °FSunny.13 mph74%29.92 "Hg10 mi
7:30 AM73 °FSunny.13 mph74%29.92 "Hg10 mi
7:00 AM73 °FPartly sunny.12 mph74%29.92 "HgN/A
6:30 AM72 °FPartly sunny.13 mph78%29.92 "HgN/A
6:00 AM72 °FScattered clouds.13 mph78%29.92 "HgN/A
5:30 AM70 °FPassing clouds.13 mph83%29.92 "HgN/A
5:00 AM70 °FPassing clouds.9 mph83%29.92 "HgN/A
4:30 AM70 °FScattered clouds.12 mph78%29.92 "HgN/A
4:00 AM70 °FPassing clouds.9 mph78%29.89 "HgN/A
3:30 AM70 °FPassing clouds.8 mph78%29.89 "HgN/A
3:00 AM70 °FClear.10 mph78%29.89 "Hg10 mi
2:30 AM70 °FClear.8 mph78%29.89 "Hg10 mi
2:00 AM70 °FClear.10 mph78%29.89 "Hg10 mi
1:30 AM70 °FClear.13 mph78%29.89 "Hg10 mi
1:00 AM70 °FClear.12 mph83%29.89 "Hg10 mi
12:30 AM70 °FClear.12 mph83%29.89 "Hg10 mi
12:00 AM70 °FClear.10 mph78%29.92 "Hg10 mi
11:30 PM
Mon, Jun 1
72 °FClear.12 mph69%29.92 "Hg10 mi
11:00 PM72 °FClear.12 mph73%29.92 "Hg10 mi
10:30 PM72 °FClear.13 mph73%29.92 "Hg10 mi
10:00 PM72 °FClear.12 mph73%29.92 "Hg10 mi
9:30 PM72 °FClear.12 mph73%29.92 "Hg10 mi
9:00 PM72 °FClear.13 mph73%29.92 "Hg10 mi
8:30 PM73 °FClear.14 mph69%29.92 "Hg10 mi
8:00 PM73 °FClear.14 mph65%29.92 "Hg10 mi
7:30 PM73 °FPassing clouds.14 mph65%29.92 "HgN/A
7:00 PM75 °FPassing clouds.16 mph61%29.89 "HgN/A
6:30 PM75 °FPartly sunny.16 mph57%29.89 "HgN/A
6:00 PM77 °FPartly sunny.15 mph54%29.89 "HgN/A
5:30 PM77 °FPartly sunny.14 mph51%29.86 "HgN/A
5:00 PM79 °FPartly sunny.15 mph51%29.86 "HgN/A
4:30 PM79 °FPartly sunny.14 mph51%29.86 "HgN/A
4:00 PM79 °FScattered clouds.12 mph54%29.86 "HgN/A
3:30 PM79 °FPartly sunny.9 mph48%29.86 "HgN/A
3:00 PM77 °FPartly sunny.9 mph54%29.86 "HgN/A
2:30 PM77 °FScattered clouds.8 mph51%29.86 "HgN/A
2:00 PM77 °FPassing clouds.9 mph47%29.86 "HgN/A
1:30 PM77 °FPassing clouds.10 mph51%29.86 "HgN/A
1:00 PM77 °FPassing clouds.10 mph47%29.86 "HgN/A
12:30 PM79 °FPassing clouds.12 mph48%29.86 "HgN/A
12:00 PM77 °FPassing clouds.8 mph47%29.89 "HgN/A
11:30 AM77 °FPassing clouds.5 mph51%29.89 "HgN/A
11:00 AM75 °FPassing clouds.6 mph50%29.89 "HgN/A
10:30 AM75 °FPassing clouds.7 mph50%29.89 "HgN/A
10:00 AM75 °FPassing clouds.8 mph50%29.89 "HgN/A
Weather by CustomWeather, © 2015

See weather overviewHow to use our weather pages